E0445 Weather Reports


Display with metric or nautical units.
time (UTC)temp
F
wind
direction
speed
MPH
gust
MPH
rain 1hr
in
rain 24hr
in
rain mn
in
humidity
%
barometer
mb
20221006011515 48 0 0.0 1.0 0.00 0.54 0.28 96 1015.9
20221006011015 48 0 0.0 1.0 0.00 0.54 0.28 96 1016.0
20221006010513 49 0 0.0 0.0 0.00 0.54 0.28 96 1015.9
20221006010026 49 0 0.0 1.0 0.00 0.54 0.28 97 1015.9
20221006005512 49 0 0.0 2.0 0.00 0.71 0.28 97 1015.9
20221006005013 49 0 0.0 2.0 0.00 0.71 0.28 96 1015.9
20221006004513 49 12 0.0 2.0 0.00 0.71 0.28 96 1015.8
20221006004017 49 12 1.0 2.0 0.00 0.71 0.28 96 1015.9
20221006003512 49 12 1.0 2.0 0.00 0.71 0.28 96 1015.9
20221006003013 49 12 1.0 2.0 0.00 0.71 0.28 96 1015.9
20221006002513 49 12 1.0 2.0 0.00 0.71 0.28 96 1015.9
20221006002010 49 12 0.0 2.0 0.00 0.71 0.28 96 1015.9
20221006001513 50 12 0.0 1.0 0.00 0.71 0.28 96 1015.8
20221006001017 50 0 0.0 1.0 0.00 0.71 0.28 96 1015.8
20221006000513 49 0 0.0 1.0 0.00 0.71 0.28 95 1015.7
20221006000018 50 0 0.0 1.0 0.00 0.71 0.28 96 1015.7
20221005235518 50 0 0.0 2.0 0.00 0.92 0.28 95 1015.6
20221005235013 50 0 0.0 2.0 0.00 0.92 0.28 95 1015.6
20221005234510 50 12 1.0 3.0 0.00 0.92 0.28 95 1015.7
20221005234010 51 12 0.0 3.0 0.00 0.92 0.28 95 1015.6
20221005233512 51 12 0.0 3.0 0.00 0.92 0.28 95 1015.6
20221005233012 52 0 0.0 2.0 0.00 0.92 0.28 95 1015.6
20221005232513 52 0 0.0 1.0 0.00 0.92 0.28 95 1015.5
20221005232010 52 0 0.0 1.0 0.00 0.92 0.28 95 1015.6
20221005231516 52 0 0.0 1.0 0.00 0.92 0.28 95 1015.6
20221005231012 53 0 0.0 1.0 0.00 0.92 0.28 95 1015.6
20221005230510 53 0 0.0 1.0 0.00 0.92 0.28 94 1015.6
20221005230021 53 0 0.0 0.0 0.00 0.92 0.28 94 1015.7
20221005225513 54 0 0.0 0.0 0.00 0.92 0.28 94 1015.7
20221005225013 55 0 0.0 1.0 0.00 0.92 0.28 94 1015.6
20221005224513 55 0 0.0 0.0 0.00 0.92 0.28 94 1015.5
20221005224013 56 0 0.0 0.0 0.00 0.92 0.28 94 1015.4
20221005223515 56 0 0.0 1.0 0.00 0.92 0.28 94 1015.5
20221005223012 57 0 0.0 0.0 0.00 0.92 0.28 94 1015.5
20221005222513 57 0 0.0 0.0 0.00 0.92 0.28 93 1015.3
20221005222014 57 0 0.0 0.0 0.00 0.92 0.28 93 1015.3
20221005221512 57 0 0.0 0.0 0.00 0.92 0.28 92 1015.2
20221005221014 57 0 0.0 0.0 0.00 0.92 0.28 92 1015.2
20221005220512 58 0 0.0 0.0 0.00 0.92 0.28 92 1015.0
20221005220017 58 0 0.0 0.0 0.00 0.92 0.28 92 1015.0
20221005215514 58 0 0.0 0.0 0.00 0.96 0.28 91 1014.9
20221005215014 58 0 0.0 0.0 0.00 0.96 0.28 90 1015.0
20221005214513 59 0 0.0 0.0 0.00 0.96 0.28 90 1014.9
20221005214015 59 0 0.0 0.0 0.00 0.96 0.28 89 1014.9
20221005213513 59 0 0.0 0.0 0.00 0.96 0.28 89 1014.9
20221005213012 59 0 0.0 2.0 0.00 0.96 0.28 88 1014.8
20221005212513 59 0 0.0 2.0 0.00 0.96 0.28 88 1014.8
20221005212013 60 22 0.0 1.0 0.00 0.96 0.28 88 1014.9
20221005211512 59 0 0.0 0.0 0.00 0.96 0.28 86 1014.7
20221005211013 59 0 0.0 0.0 0.00 0.96 0.28 86 1014.8
20221005210511 60 0 0.0 0.0 0.00 0.96 0.28 84 1014.7
20221005210013 61 0 0.0 2.0 0.00 0.96 0.28 81 1014.7
20221005205510 61 0 0.0 3.0 0.00 0.99 0.28 78 1014.7
20221005205013 61 0 0.0 3.0 0.00 0.99 0.28 74 1014.8
20221005204512 61 0 0.0 4.0 0.00 0.99 0.28 74 1014.7
20221005204011 61 0 0.0 4.0 0.00 0.99 0.28 74 1014.7
20221005203511 61 34 1.0 4.0 0.00 0.99 0.28 74 1014.6
20221005203010 61 360 1.0 6.0 0.00 0.99 0.28 73 1014.7
20221005202510 61 5 1.0 6.0 0.00 0.99 0.28 73 1014.6
20221005202012 61 43 2.0 6.0 0.00 0.99 0.28 74 1014.6
20221005201510 61 0 1.0 5.0 0.00 0.99 0.28 73 1014.6
20221005201010 62 344 1.0 8.0 0.00 0.99 0.28 75 1014.6
20221005200511 62 346 2.0 10.0 0.00 0.99 0.28 73 1014.6
20221005200010 61 42 3.0 8.0 0.00 0.99 0.28 73 1014.5
20221005195510 61 326 3.0 7.0 0.00 1.10 0.28 74 1014.5
20221005195010 61 333 2.0 7.0 0.00 1.10 0.28 75 1014.6
20221005194511 61 314 2.0 5.0 0.00 1.10 0.28 79 1014.6
20221005194010 60 323 2.0 6.0 0.00 1.10 0.28 77 1014.7
20221005193510 60 330 2.0 6.0 0.00 1.10 0.28 80 1014.7
20221005193010 60 334 2.0 5.0 0.00 1.10 0.28 80 1014.7
20221005192510 59 347 1.0 5.0 0.00 1.10 0.28 83 1014.8
20221005192010 59 16 2.0 8.0 0.00 1.10 0.28 83 1014.9
20221005191510 58 17 3.0 8.0 0.00 1.10 0.28 81 1014.9
20221005191010 58 355 3.0 9.0 0.00 1.10 0.28 82 1015.0
20221005190510 59 5 3.0 10.0 0.00 1.10 0.28 81 1015.0
20221005190010 59 5 3.0 11.0 0.00 1.10 0.28 82 1015.0
20221005185518 59 355 5.0 11.0 0.00 1.14 0.28 84 1015.0
20221005185009 59 16 5.0 10.0 0.00 1.14 0.28 85 1015.0
20221005184515 58 355 4.0 9.0 0.01 1.14 0.28 88 1015.1
20221005184009 57 321 1.0 8.0 0.01 1.14 0.28 86 1015.1
20221005183512 57 5 1.0 8.0 0.01 1.14 0.28 88 1015.1
20221005183010 57 333 2.0 5.0 0.01 1.14 0.28 88 1015.1
20221005182510 56 303 1.0 3.0 0.01 1.14 0.28 89 1015.3
20221005182010 56 0 1.0 5.0 0.01 1.14 0.28 89 1015.3
20221005181513 57 26 1.0 5.0 0.01 1.14 0.28 90 1015.4
20221005181010 56 48 2.0 5.0 0.01 1.14 0.28 90 1015.4
20221005180510 56 13 2.0 5.0 0.01 1.14 0.28 90 1015.4
20221005180010 55 355 2.0 6.0 0.02 1.14 0.28 92 1015.4
20221005175510 55 355 2.0 6.0 0.02 1.15 0.28 92 1015.4
20221005175013 55 355 2.0 5.0 0.02 1.15 0.28 93 1015.5
20221005174513 54 0 1.0 5.0 0.01 1.14 0.27 94 1015.5
20221005174010 54 360 2.0 5.0 0.01 1.14 0.27 93 1015.5
20221005173510 54 345 2.0 4.0 0.01 1.14 0.27 94 1015.4
20221005173010 54 330 2.0 4.0 0.01 1.14 0.27 94 1015.5
20221005172511 53 37 2.0 4.0 0.01 1.14 0.27 95 1015.6
20221005172011 53 300 2.0 4.0 0.01 1.14 0.27 95 1015.6
20221005171513 53 310 1.0 4.0 0.01 1.14 0.27 95 1015.7
20221005171009 53 0 1.0 5.0 0.01 1.14 0.27 95 1015.8
20221005170510 52 302 1.0 5.0 0.01 1.14 0.27 94 1015.7
20221005170013 52 302 2.0 5.0 0.00 1.13 0.26 94 1015.8
20221005165511 53 347 2.0 4.0 0.01 1.14 0.26 94 1016.0
20221005165013 53 351 1.0 4.0 0.01 1.14 0.26 94 1016.0
20221005164513 52 355 1.0 4.0 0.01 1.14 0.26 94 1016.2
20221005164012 53 0 1.0 5.0 0.01 1.14 0.26 94 1016.1
20221005163513 53 345 2.0 6.0 0.01 1.14 0.26 93 1016.2
20221005163022 53 332 2.0 6.0 0.01 1.14 0.26 93 1016.1
20221005162512 53 360 2.0 6.0 0.01 1.14 0.26 93 1016.0
20221005162012 53 324 3.0 5.0 0.01 1.14 0.26 93 1016.0
20221005161513 53 355 2.0 5.0 0.01 1.14 0.26 93 1016.0
20221005161012 53 344 2.0 6.0 0.01 1.14 0.26 94 1016.1
20221005160510 53 24 3.0 6.0 0.01 1.14 0.26 93 1016.2
20221005160010 53 36 2.0 7.0 0.01 1.14 0.26 93 1016.2
20221005155509 53 42 2.0 7.0 0.00 1.13 0.25 93 1016.1
20221005155012 53 22 2.0 6.0 0.00 1.13 0.25 94 1016.1
20221005154520 53 42 2.0 6.0 0.00 1.13 0.25 94 1016.1
20221005154009 53 49 3.0 6.0 0.00 1.13 0.25 94 1016.2
20221005153509 53 319 1.0 4.0 0.00 1.13 0.25 95 1016.2
20221005153010 53 34 2.0 4.0 0.00 1.13 0.25 94 1016.1
20221005152513 53 18 1.0 5.0 0.00 1.13 0.25 95 1016.1
20221005152015 52 329 1.0 5.0 0.00 1.13 0.25 95 1016.0
20221005151512 52 38 2.0 5.0 0.00 1.13 0.25 95 1016.0
20221005151012 52 0 1.0 4.0 0.00 1.13 0.25 95 1016.0
20221005150516 52 315 2.0 4.0 0.00 1.13 0.25 95 1016.0
20221005150012 51 329 2.0 6.0 0.00 1.13 0.25 95 1015.9
20221005145514 51 335 1.0 6.0 0.01 1.13 0.25 95 1015.8
20221005145012 51 13 1.0 5.0 0.01 1.13 0.25 96 1015.8
20221005144522 51 309 1.0 5.0 0.01 1.13 0.25 96 1015.8
20221005144012 50 311 2.0 4.0 0.01 1.13 0.25 96 1015.8
20221005143512 50 321 1.0 4.0 0.01 1.13 0.25 95 1015.8
20221005143013 50 0 0.0 4.0 0.01 1.13 0.25 96 1015.8
20221005142509 50 0 1.0 3.0 0.01 1.13 0.25 96 1015.8
20221005142010 50 350 0.0 3.0 0.01 1.13 0.25 96 1015.9
20221005141509 50 0 0.0 3.0 0.01 1.13 0.25 96 1015.8
20221005141009 50 350 1.0 6.0 0.01 1.13 0.25 95 1015.9
20221005140512 50 352 1.0 6.0 0.01 1.13 0.25 95 1015.8
20221005140013 50 309 2.0 6.0 0.00 1.12 0.24 95 1015.9
20221005135510 50 334 2.0 5.0 0.00 1.15 0.24 95 1015.9
20221005135009 50 346 2.0 5.0 0.00 1.15 0.24 95 1016.0
20221005134510 50 335 1.0 4.0 0.00 1.15 0.24 95 1016.0
20221005134013 50 340 1.0 5.0 0.00 1.15 0.24 95 1016.0
20221005133512 50 24 1.0 5.0 0.00 1.15 0.24 95 1015.9
20221005133014 50 23 2.0 5.0 0.00 1.15 0.24 95 1015.8
20221005132512 50 0 1.0 4.0 0.00 1.15 0.24 96 1015.8
20221005132012 50 23 2.0 5.0 0.00 1.15 0.24 96 1015.8
20221005131512 50 36 2.0 5.0 0.00 1.15 0.24 96 1015.8
20221005131012 50 0 1.0 4.0 0.00 1.15 0.24 96 1015.8
20221005130517 50 341 0.0 4.0 0.00 1.15 0.24 96 1015.8
20221005130012 50 32 0.0 4.0 0.00 1.15 0.24 96 1015.9
20221005125515 49 28 1.0 4.0 0.00 1.25 0.24 96 1015.9
20221005125012 49 26 0.0 2.0 0.00 1.25 0.24 96 1015.9
20221005124518 49 27 0.0 5.0 0.00 1.25 0.24 96 1015.9
20221005124009 49 29 2.0 5.0 0.00 1.25 0.24 96 1015.9
20221005123512 49 0 0.0 0.0 0.00 1.25 0.24 96 1016.0
20221005123012 48 0 0.0 2.0 0.00 1.25 0.24 96 1015.9
20221005122512 48 0 0.0 2.0 0.00 1.25 0.24 96 1015.8
20221005122012 48 0 0.0 2.0 0.00 1.25 0.24 96 1015.8
20221005121512 48 0 0.0 2.0 0.01 1.25 0.24 96 1015.8
20221005121012 48 0 0.0 2.0 0.01 1.25 0.24 96 1015.7
20221005120512 48 0 0.0 4.0 0.01 1.25 0.24 96 1015.7
20221005120022 48 331 1.0 4.0 0.01 1.25 0.24 96 1015.6
20221005115511 48 331 1.0 4.0 0.01 1.28 0.24 96 1015.4
20221005115009 47 0 0.0 1.0 0.01 1.28 0.24 96 1015.5
20221005114511 47 0 0.0 2.0 0.01 1.28 0.24 96 1015.4
20221005114013 47 63 0.0 3.0 0.01 1.28 0.24 96 1015.4
20221005113509 47 0 0.0 3.0 0.01 1.28 0.24 96 1015.5
20221005113013 47 63 1.0 3.0 0.01 1.28 0.24 96 1015.5
20221005112513 47 0 0.0 3.0 0.02 1.28 0.24 96 1015.4
20221005112012 47 18 0.0 3.0 0.02 1.27 0.23 96 1015.4
20221005111512 47 28 0.0 4.0 0.03 1.27 0.23 96 1015.3
20221005111014 47 0 0.0 4.0 0.03 1.27 0.23 96 1015.3
20221005110513 47 315 2.0 4.0 0.03 1.27 0.23 96 1015.1
20221005110014 47 327 0.0 2.0 0.04 1.27 0.23 96 1015.5
20221005105512 47 0 0.0 0.0 0.04 1.34 0.23 96 1015.5
20221005105010 47 0 0.0 0.0 0.04 1.34 0.23 96 1015.6
20221005104512 47 0 0.0 0.0 0.04 1.34 0.23 96 1015.6
20221005104012 47 0 0.0 0.0 0.04 1.34 0.23 96 1015.5
20221005103512 47 0 0.0 0.0 0.04 1.34 0.23 96 1015.6
20221005103012 47 0 0.0 0.0 0.04 1.33 0.22 96 1015.7
20221005102513 47 0 0.0 0.0 0.04 1.33 0.22 96 1015.7
20221005102010 47 0 0.0 2.0 0.03 1.32 0.21 95 1015.7
20221005101524 47 0 0.0 2.0 0.03 1.31 0.20 95 1015.5
20221005101011 47 0 0.0 2.0 0.04 1.31 0.20 95 1015.4
20221005100511 47 0 0.0 3.0 0.06 1.31 0.20 95 1015.3